Volver al catálogo

INNOCUBE

TUBSAT-31

ActivoRadioaficionadoSSO
NORAD 62616·PAYLOAD·🇩🇪 Germany

Lanzado Jan 14, 2025 desde Vandenberg Space Force Base

Loading…

Próximos Pases (próximas 24 horas)

TLE

ActualizadoSource: Space-Track

Época: Sep 14, 2026, 11:11 UTC

1 62616U 25009H   26257.46614771  .00005607  00000-0  21050-3 0  9994
2 62616  97.3847 336.5627 0006209  31.5598 328.6013 15.27589731 92441

Sigue INNOCUBE en tiempo real con AllMySat

Download on the App Store